| time (UTC) | temp F | wind direction | speed MPH | gust MPH | rain 1hr in | rain 24hr in | rain mn in | humidity % | barometer mb |
| 20260905120031 | 75 | 174 | 0.0 | 0.0 | 0.00 | 0.00 | 0.00 | 84 | 1016.0 |
| 20260905114513 | 76 | 174 | 0.0 | 0.0 | 0.00 | 0.00 | 0.00 | 83 | 1016.0 |
| 20260905113004 | 75 | 174 | 0.0 | 0.0 | 0.00 | 0.00 | 0.00 | 85 | 1015.9 |
| 20260905111504 | 76 | 174 | 0.0 | 0.0 | 0.00 | 0.00 | 0.00 | 82 | 1015.9 |
| 20260905110006 | 76 | 174 | 0.0 | 0.0 | 0.00 | 0.00 | 0.00 | 83 | 1015.9 |
| 20260905104505 | 76 | 174 | 0.0 | 0.0 | 0.00 | 0.00 | 0.00 | 83 | 1015.9 |
| 20260905103015 | 75 | 174 | 0.0 | 1.0 | 0.00 | 0.00 | 0.00 | 84 | 1015.8 |
| 20260905101505 | 77 | 174 | 0.0 | 2.0 | 0.00 | 0.00 | 0.00 | 82 | 1015.7 |
| 20260905100006 | 77 | 174 | 0.0 | 2.0 | 0.00 | 0.00 | 0.00 | 81 | 1015.7 |
| 20260905094528 | 77 | 174 | 0.0 | 0.0 | 0.00 | 0.00 | 0.00 | 80 | 1015.7 |
| 20260905093007 | 77 | 174 | 1.0 | 3.0 | 0.00 | 0.00 | 0.00 | 80 | 1015.5 |
| 20260905091518 | 78 | 173 | 2.0 | 2.0 | 0.00 | 0.00 | 0.00 | 79 | 1015.5 |
| 20260905090029 | 78 | 173 | 1.0 | 3.0 | 0.00 | 0.00 | 0.00 | 79 | 1015.5 |
| 20260905084509 | 77 | 172 | 3.0 | 4.0 | 0.00 | 0.00 | 0.00 | 80 | 1015.3 |
| 20260905083010 | 78 | 172 | 2.0 | 3.0 | 0.00 | 0.00 | 0.00 | 79 | 1015.3 |
| 20260905081506 | 78 | 172 | 1.0 | 2.0 | 0.00 | 0.00 | 0.00 | 79 | 1015.3 |
| 20260905080017 | 78 | 172 | 0.0 | 2.0 | 0.00 | 0.00 | 0.00 | 77 | 1015.3 |
| 20260905074528 | 79 | 172 | 1.0 | 2.0 | 0.00 | 0.00 | 0.00 | 77 | 1015.4 |
| 20260905073014 | 79 | 172 | 1.0 | 3.0 | 0.00 | 0.00 | 0.00 | 75 | 1015.4 |
| 20260905071512 | 80 | 171 | 0.0 | 1.0 | 0.00 | 0.00 | 0.00 | 74 | 1015.6 |
| 20260905070018 | 78 | 171 | 0.0 | 2.0 | 0.00 | 0.00 | 0.00 | 77 | 1015.7 |
| 20260905064517 | 80 | 171 | 1.0 | 2.0 | 0.00 | 0.00 | 0.00 | 73 | 1015.9 |
| 20260905063026 | 79 | 171 | 0.0 | 2.0 | 0.00 | 0.00 | 0.00 | 75 | 1015.8 |
| 20260905061519 | 80 | 171 | 1.0 | 2.0 | 0.00 | 0.00 | 0.00 | 73 | 1015.8 |
| 20260905060012 | 81 | 171 | 0.0 | 2.0 | 0.00 | 0.00 | 0.00 | 72 | 1015.7 |
| 20260905054526 | 81 | 172 | 1.0 | 3.0 | 0.00 | 0.00 | 0.00 | 71 | 1015.6 |
| 20260905053018 | 81 | 162 | 3.0 | 4.0 | 0.00 | 0.00 | 0.00 | 70 | 1015.5 |
| 20260905051525 | 82 | 169 | 1.0 | 2.0 | 0.00 | 0.00 | 0.00 | 69 | 1015.5 |
| 20260905050010 | 82 | 165 | 1.0 | 2.0 | 0.00 | 0.00 | 0.00 | 69 | 1015.5 |
| 20260905044524 | 82 | 165 | 1.0 | 3.0 | 0.00 | 0.00 | 0.00 | 69 | 1015.4 |
| 20260905043023 | 83 | 165 | 1.0 | 2.0 | 0.00 | 0.00 | 0.00 | 67 | 1015.4 |
| 20260905041513 | 83 | 165 | 1.0 | 3.0 | 0.00 | 0.00 | 0.00 | 66 | 1015.4 |
| 20260905040025 | 83 | 164 | 2.0 | 3.0 | 0.00 | 0.00 | 0.00 | 66 | 1015.5 |
| 20260905034513 | 84 | 131 | 3.0 | 6.0 | 0.00 | 0.00 | 0.00 | 65 | 1015.5 |
| 20260905033017 | 84 | 131 | 2.0 | 5.0 | 0.00 | 0.00 | 0.00 | 65 | 1015.4 |
| 20260905031523 | 84 | 122 | 3.0 | 5.0 | 0.00 | 0.00 | 0.00 | 64 | 1015.4 |
| 20260905030027 | 84 | 136 | 2.0 | 3.0 | 0.00 | 0.00 | 0.00 | 64 | 1015.3 |
| 20260905024529 | 85 | 158 | 2.0 | 4.0 | 0.00 | 0.00 | 0.00 | 61 | 1015.2 |
| 20260905023030 | 86 | 167 | 3.0 | 4.0 | 0.00 | 0.00 | 0.00 | 61 | 1014.9 |
| 20260905021528 | 86 | 176 | 1.0 | 3.0 | 0.00 | 0.00 | 0.00 | 60 | 1014.8 |
| 20260905020029 | 87 | 177 | 1.0 | 3.0 | 0.00 | 0.00 | 0.00 | 58 | 1014.5 |
| 20260905014532 | 87 | 182 | 3.0 | 5.0 | 0.00 | 0.00 | 0.00 | 58 | 1014.4 |
| 20260905013023 | 88 | 179 | 2.0 | 4.0 | 0.00 | 0.00 | 0.00 | 57 | 1014.1 |
| 20260905011533 | 89 | 177 | 2.0 | 3.0 | 0.00 | 0.00 | 0.00 | 55 | 1013.9 |
| 20260905010022 | 90 | 172 | 1.0 | 3.0 | 0.00 | 0.00 | 0.00 | 53 | 1013.9 |
| 20260905004528 | 91 | 166 | 2.0 | 4.0 | 0.00 | 0.00 | 0.00 | 51 | 1013.8 |
| 20260905003032 | 92 | 131 | 2.0 | 4.0 | 0.00 | 0.00 | 0.00 | 49 | 1013.8 |
| 20260905001518 | 93 | 131 | 0.0 | 4.0 | 0.00 | 0.00 | 0.00 | 47 | 1013.9 |
| 20260905000016 | 94 | 51 | 3.0 | 10.0 | 0.00 | 0.00 | 0.00 | 48 | 1013.7 |
| 20260904234525 | 97 | 88 | 6.0 | 12.0 | 0.00 | 0.00 | 0.00 | 43 | 1013.7 |
| 20260904233025 | 98 | 186 | 4.0 | 8.0 | 0.00 | 0.00 | 0.00 | 41 | 1013.5 |
| 20260904231532 | 99 | 174 | 4.0 | 10.0 | 0.00 | 0.00 | 0.00 | 39 | 1013.5 |
| 20260904230034 | 99 | 148 | 1.0 | 9.0 | 0.00 | 0.00 | 0.00 | 40 | 1013.4 |
| 20260904224529 | 100 | 207 | 4.0 | 12.0 | 0.00 | 0.00 | 0.00 | 39 | 1013.5 |
| 20260904223024 | 99 | 230 | 4.0 | 10.0 | 0.00 | 0.00 | 0.00 | 41 | 1013.6 |
| 20260904221523 | 98 | 224 | 5.0 | 8.0 | 0.00 | 0.00 | 0.00 | 41 | 1013.5 |
| 20260904220032 | 101 | 186 | 7.0 | 10.0 | 0.00 | 0.00 | 0.00 | 39 | 1013.6 |
| 20260904214534 | 101 | 188 | 10.0 | 16.0 | 0.00 | 0.00 | 0.00 | 39 | 1013.9 |
| 20260904213033 | 101 | 219 | 5.0 | 15.0 | 0.00 | 0.00 | 0.00 | 39 | 1014.0 |
| 20260904211528 | 101 | 189 | 9.0 | 14.0 | 0.00 | 0.00 | 0.00 | 40 | 1014.2 |
| 20260904210029 | 100 | 193 | 10.0 | 15.0 | 0.00 | 0.00 | 0.00 | 40 | 1014.5 |
| 20260904204531 | 101 | 185 | 11.0 | 16.0 | 0.00 | 0.00 | 0.00 | 40 | 1014.7 |
| 20260904203036 | 101 | 229 | 9.0 | 15.0 | 0.00 | 0.00 | 0.00 | 40 | 1014.9 |
| 20260904201526 | 101 | 224 | 10.0 | 15.0 | 0.00 | 0.00 | 0.00 | 41 | 1015.1 |
| 20260904200030 | 100 | 203 | 5.0 | 9.0 | 0.00 | 0.00 | 0.00 | 41 | 1015.3 |
| 20260904194536 | 99 | 169 | 7.0 | 12.0 | 0.00 | 0.00 | 0.00 | 41 | 1015.5 |
| 20260904193030 | 99 | 158 | 6.0 | 10.0 | 0.00 | 0.00 | 0.00 | 42 | 1015.7 |
| 20260904191534 | 98 | 201 | 6.0 | 12.0 | 0.00 | 0.00 | 0.00 | 42 | 1015.8 |
| 20260904190029 | 98 | 210 | 4.0 | 13.0 | 0.00 | 0.00 | 0.00 | 43 | 1016.0 |
| 20260904184531 | 97 | 354 | 3.0 | 15.0 | 0.00 | 0.00 | 0.00 | 44 | 1016.0 |
| 20260904183030 | 96 | 180 | 4.0 | 10.0 | 0.00 | 0.00 | 0.00 | 46 | 1016.3 |
| 20260904181535 | 99 | 203 | 8.0 | 16.0 | 0.00 | 0.00 | 0.00 | 44 | 1016.6 |
| 20260904180025 | 95 | 219 | 9.0 | 18.0 | 0.00 | 0.00 | 0.00 | 48 | 1016.7 |
| 20260904174520 | 95 | 192 | 6.0 | 9.0 | 0.00 | 0.00 | 0.00 | 48 | 1017.1 |
| 20260904173010 | 95 | 198 | 5.0 | 10.0 | 0.00 | 0.00 | 0.00 | 46 | 1017.2 |
| 20260904171519 | 95 | 156 | 6.0 | 15.0 | 0.00 | 0.00 | 0.00 | 49 | 1017.5 |
| 20260904170019 | 93 | 203 | 9.0 | 14.0 | 0.00 | 0.01 | 0.00 | 52 | 1017.6 |
| 20260904164508 | 94 | 168 | 6.0 | 10.0 | 0.00 | 0.02 | 0.00 | 52 | 1017.7 |
| 20260904163019 | 92 | 155 | 5.0 | 10.0 | 0.00 | 0.02 | 0.00 | 56 | 1017.7 |
| 20260904161529 | 89 | 226 | 2.0 | 6.0 | 0.00 | 0.02 | 0.00 | 62 | 1017.6 |
| 20260904160017 | 91 | 210 | 8.0 | 10.0 | 0.00 | 0.02 | 0.00 | 61 | 1017.8 |
| 20260904154535 | 89 | 143 | 3.0 | 6.0 | 0.00 | 0.02 | 0.00 | 63 | 1017.8 |
| 20260904153035 | 89 | 229 | 3.0 | 9.0 | 0.00 | 0.02 | 0.00 | 64 | 1017.8 |
| 20260904151519 | 86 | 273 | 2.0 | 7.0 | 0.00 | 0.02 | 0.00 | 71 | 1017.7 |
| 20260904150013 | 86 | 255 | 3.0 | 10.0 | 0.00 | 0.02 | 0.00 | 72 | 1017.6 |
| 20260904144514 | 85 | 259 | 4.0 | 8.0 | 0.00 | 0.02 | 0.00 | 74 | 1017.7 |
| 20260904143028 | 84 | 210 | 6.0 | 9.0 | 0.00 | 0.02 | 0.00 | 77 | 1017.7 |
| 20260904141529 | 83 | 193 | 4.0 | 7.0 | 0.00 | 0.02 | 0.00 | 79 | 1017.6 |
| 20260904140016 | 81 | 181 | 4.0 | 7.0 | 0.00 | 0.02 | 0.00 | 81 | 1017.5 |
| 20260904134514 | 80 | 176 | 2.0 | 7.0 | 0.00 | 0.02 | 0.00 | 83 | 1017.4 |
| 20260904133019 | 79 | 178 | 4.0 | 5.0 | 0.00 | 0.02 | 0.00 | 85 | 1017.4 |
| 20260904131523 | 77 | 150 | 1.0 | 5.0 | 0.00 | 0.02 | 0.00 | 86 | 1017.4 |
| 20260904130026 | 76 | 151 | 1.0 | 4.0 | 0.00 | 0.02 | 0.00 | 88 | 1017.2 |
| 20260904124518 | 75 | 135 | 2.0 | 5.0 | 0.00 | 0.02 | 0.00 | 89 | 1017.0 |
| 20260904123027 | 74 | 130 | 2.0 | 4.0 | 0.00 | 0.02 | 0.00 | 89 | 1016.8 |
| 20260904121508 | 73 | 129 | 1.0 | 3.0 | 0.00 | 0.02 | 0.00 | 90 | 1016.8 |